SCP
0 0 0 0 0 0 0 0 0 -0 -0 0 0 0 0 -0 -0 -0 -0 -1 -1 -0 -0 -0 -0 -0 -0 -0 -0 -0 -0 -0 -0 -0 -0 -0 -0 -0 -0 -0 -0 -0 -0 0 0 0 -0 -0 -0
0 0 0 0 0 0 -0 0 0 -0 0 0 0 1 1 1 0 0 -0 -0 -1 -1 -0 -0 -0 -0 -0 -0 -0 -0 -0 -0 -0 -0 -0 -0 -0 -0 -0 -0 -0 -0 -0 0 -0 -0 -0 -0 -0
0 0 0 0 0 0 0 0 0 0 0 0 0 0 1 0 0 0 -0 -1 -1 -0 -0 -0 -0 -0 -0 -0 -0 -0 -0 -0 -0 -0 -0 -0 -0 -0 -0 -0 0 0 0 -0 -0 -0 -0 -0 -0
0 0 0 0 0 0 0 0 -0 -0 0 0 0 0 0 1 1 1 -0 -0 -0 -0 -0 -0 -0 -0 -0 -0 -0 -0 -0 -0 -0 -0 -0 -0 -0 -0 -0 -0 0 0 0 0 0 0 0 0 0
0 0 0 0 0 0 0 0 0 0 0 0 0 0 1 3 1 0 -0 0 -0 0 0 -0 -0 -0 -0 -0 -0 -0 -0 -0 -0 -0 -0 -0 -0 -0 -0 -0 0 0 0 0 0 0 0 0 0
0 0 0 0 0 0 0 0 0 0 0 0 0 0 0 1 1 1 0 0 0 0 0 0 -0 -0 -0 -0 -0 -0 -0 -0 -0 -0 -0 -0 -0 -0 -0 0 0 0 0 0 0 0 0 0 0
0 0 0 0 0 0 0 0 0 0 0 0 0 0 0 1 1 1 0 0 1 1 1 1 0 0 -0 -0 -0 -0 -0 -0 -0 -0 -0 -0 -0 -0 -0 0 0 0 0 0 0 0 0 0 0
0 0 0 0 0 0 -0 -0 0 0 0 0 0 0 1 1 1 1 1 1 1 1 1 1 1 0 0 0 -0 -0 -0 -0 -0 -0 -0 -0 -0 -0 0 0 0 0 0 0 0 0 0 0 0
0 0 0 0 0 0 -0 -0 -0 0 0 0 0 1 2 2 2 2 1 1 0 1 1 1 1 0 0 0 0 0 -0 0 -0 -0 0 0 0 0 0 0 0 0 0 0 0 0 0 0 0
0 0 0 0 0 0 0 0 0 0 0 0 0 0 1 2 1 1 1 1 0 0 0 0 0 0 0 1 0 0 0 0 0 0 0 0 0 0 0 0 0 0 0 0 0 0 0 0 0
0 0 0 0 0 0 0 0 -0 -0 0 0 0 0 1 1 1 1 1 0 0 0 0 0 0 0 0 1 0 0 0 0 0 0 0 -0 -0 -0 -0 0 0 0 0 0 0 0 0 0 0
0 0 0 0 0 0 0 0 0 -0 0 0 0 0 0 0 1 1 1 1 0 0 0 0 0 0 0 0 0 0 0 0 0 0 0 -0 -0 -0 0 0 0 0 0 0 0 0 0 0 0
0 0 0 0 0 0 0 0 0 0 0 0 0 0 0 0 0 0 1 1 1 0 0 0 0 0 0 0 0 0 0 0 0 0 -0 -0 -0 -0 -0 0 0 0 0 0 0 0 0 0 0
0 0 0 0 0 0 0 0 0 0 0 0 0 0 0 0 0 0 0 1 2 1 0 0 0 0 0 0 0 0 0 0 0 0 -0 -0 -0 -0 -0 0 0 0 0 0 0 0 0 0 0
0 0 0 0 0 0 0 0 0 0 0 0 0 0 0 0 0 0 0 0 2 6 4 0 0 1 0 0 0 0 0 0 0 0 0 -0 -0 -0 -0 0 0 0 1 1 0 0 0 0 0
0 0 0 0 0 0 0 0 0 0 0 0 0 0 0 0 0 0 0 0 1 2 1 2 2 0 2 1 0 0 1 0 0 0 0 -0 -0 0 1 0 1 1 1 1 0 0 0 0 0
0 0 0 0 0 0 0 0 0 0 0 0 0 0 0 0 0 0 0 0 1 1 1 1 0 1 2 4 3 2 2 1 2 1 1 0 1 1 1 1 1 2 1 1 1 1 1 0 0
0 0 0 0 0 0 0 0 0 0 0 0 0 0 0 0 0 0 0 1 2 0 0 1 1 1 0 3 4 3 2 3 1 1 1 1 1 1 1 1 2 1 1 1 1 1 1 1 1
0 0 0 0 0 0 0 0 0 0 0 0 0 0 0 0 0 -0 -0 0 1 1 0 0 0 0 2 2 3 3 2 2 2 2 2 2 1 1 1 2 1 1 1 1 1 1 1 1 1
0 0 0 0 0 0 0 0 0 0 0 0 0 0 0 0 -0 -0 -0 1 1 1 0 0 1 2 1 1 2 2 2 2 2 2 2 1 2 2 2 1 2 1 1 1 2 1 1 1 1
0 0 0 0 0 0 0 0 0 0 -0 0 0 0 0 0 -0 0 0 1 0 1 0 0 0 0 1 0 1 2 1 1 2 2 2 3 3 2 2 1 1 1 1 1 1 1 1 1 1
0 0 0 0 0 0 0 0 0 0 0 0 0 0 0 0 0 0 0 1 1 1 1 0 0 0 0 0 1 0 1 1 1 2 2 2 2 1 1 1 1 1 1 0 0 1 0 0 0
0 0 0 0 0 0 0 0 0 0 0 0 0 0 0 0 0 0 2 2 1 1 0 0 0 2 1 1 1 1 1 2 2 2 1 1 0 1 0 0 0 0 0 0 0 0 0 0 0
0 0 0 0 0 0 0 0 0 0 0 0 0 0 0 0 0 0 1 2 2 2 1 1 1 0 1 1 0 1 1 1 2 1 0 0 0 0 0 0 0 0 0 0 0 0 0 0 0
0 0 0 0 0 0 0 0 0 0 0 0 0 0 0 0 0 0 2 3 2 2 2 2 1 1 1 1 1 1 1 1 1 0 0 0 0 0 0 0 0 0 0 0 0 0 0 0 0
0 0 0 0 0 0 0 0 0 0 0 0 0 0 0 0 0 0 4 5 3 1 1 0 1 1 1 0 0 0 0 0 0 0 0 0 0 0 0 0 0 0 0 0 0 0 0 0 0
0 0 0 0 0 0 0 0 0 0 0 0 0 0 0 0 0 2 5 3 2 1 1 1 0 0 0 0 0 0 0 0 0 0 0 0 0 0 0 0 0 0 0 0 0 0 0 0 0
0 0 0 0 0 0 0 0 0 0 0 0 0 0 0 2 2 3 3 2 1 0 0 0 0 0 0 0 0 0 0 0 0 0 0 0 0 0 0 0 0 0 0 0 0 0 0 0 0
0 0 0 0 0 0 0 0 0 0 0 0 0 1 3 3 2 1 1 1 0 0 0 0 0 0 0 0 0 0 0 0 0 0 0 0 0 0 0 0 0 0 0 0 0 0 0 0 0
0 0 0 0 0 0 0 0 0 1 1 1 1 2 2 1 1 0 0 0 0 0 0 0 0 0 0 0 0 0 0 0 0 0 0 0 0 0 0 0 0 0 0 0 0 0 0 0 0
Wind_Speed_500mb
20 10 12 8 3 4 12 20 26 42 31 27 22 37 33 42 29 13 46 50 27 60 61 57 55 51 50 47 43 38 34 30 28 29 31 35 37 36 33 31 26 22 19 17 17 17 17 18 16
15 13 7 11 8 7 15 29 41 44 40 2 15 62 54 29 42 46 48 42 34 58 58 57 54 52 48 46 42 37 33 30 27 27 29 33 35 34 29 27 24 19 16 15 14 14 14 15 16
18 22 10 9 8 22 17 18 39 45 45 14 6 39 21 52 48 40 51 49 38 62 57 54 53 50 48 45 41 36 32 30 26 24 25 29 31 30 26 24 22 17 14 11 11 12 15 16 15
9 11 17 6 19 22 39 27 49 32 53 18 18 17 24 41 51 55 54 41 41 62 56 53 50 48 46 45 42 37 33 30 26 23 22 25 29 27 24 20 18 15 12 12 12 12 14 15 15
19 15 8 11 19 23 28 58 75 38 45 26 8 12 20 34 57 65 54 38 47 61 57 53 49 46 44 44 43 40 35 31 26 21 19 21 25 25 22 19 15 14 12 11 12 11 11 12 12
12 13 6 26 19 33 36 66 61 34 57 48 11 21 20 42 72 58 46 37 44 59 59 55 50 44 42 42 42 41 37 32 27 22 18 19 22 22 19 16 13 11 9 8 8 8 7 5 3
17 7 12 17 21 38 28 81 43 33 37 32 49 21 42 52 68 57 45 38 35 45 57 56 52 47 43 43 42 41 38 34 28 21 18 18 20 22 19 15 12 9 7 6 4 4 4 4 6
33 9 21 28 32 41 39 47 77 50 41 57 30 15 32 62 65 61 59 52 46 39 48 55 54 51 51 50 46 43 40 35 30 24 21 21 22 23 22 17 13 10 7 6 6 6 9 11 15
40 15 33 50 37 24 58 15 60 36 40 12 23 53 77 67 67 63 62 63 57 47 43 55 55 55 55 56 54 49 45 40 36 32 29 27 25 25 24 20 15 10 9 8 8 10 13 16 20
23 24 52 18 24 29 43 28 46 10 4 7 51 65 63 70 64 69 71 70 57 51 49 65 61 59 58 56 54 51 47 43 39 36 32 30 26 23 21 18 12 11 11 12 14 16 20 21 24
17 51 29 35 50 62 48 45 57 10 10 21 27 64 61 55 60 64 64 69 57 51 47 68 64 61 58 57 53 49 44 40 36 32 30 28 26 22 16 17 9 9 7 15 18 17 22 17 19
33 51 53 49 54 67 41 57 33 19 25 38 33 44 61 58 53 58 58 67 63 58 50 64 63 61 55 53 52 47 42 37 33 30 30 29 28 26 10 11 14 3 7 14 15 19 21 21 24
47 46 50 59 69 73 60 40 36 34 26 39 34 41 58 57 56 52 54 58 73 65 55 53 52 59 54 47 46 43 40 35 30 26 27 32 26 21 16 11 7 9 8 12 15 21 25 29 25
16 45 50 58 63 71 44 34 33 42 19 21 26 21 50 58 53 55 51 54 66 70 74 62 59 55 53 44 35 42 36 29 26 24 18 28 29 22 19 12 19 7 12 14 12 14 19 29 32
66 45 33 48 60 51 50 36 47 42 24 26 24 20 12 68 62 59 64 48 53 59 72 75 66 57 53 44 27 32 27 27 21 15 15 18 26 24 19 15 14 11 5 11 18 29 34 36 34
33 30 35 46 50 50 35 48 30 34 23 36 28 32 27 21 33 36 57 63 44 46 64 68 61 53 50 38 34 31 35 29 26 17 20 19 12 28 26 26 18 14 15 19 26 25 28 34 38
25 32 42 48 42 41 38 20 18 39 40 40 32 42 38 37 33 41 44 48 54 45 62 68 78 61 62 44 45 44 44 38 42 23 20 22 19 21 30 21 21 15 17 24 27 32 33 38 41
34 47 43 49 48 50 48 34 17 41 50 40 37 47 49 45 46 53 53 46 57 43 43 72 74 68 78 66 57 53 41 43 31 26 24 23 16 14 19 24 29 24 28 25 25 28 33 34 39
38 40 45 31 39 32 47 31 28 23 30 39 49 52 53 50 56 61 61 53 65 55 55 80 59 69 73 70 75 61 60 45 37 22 32 27 24 16 14 21 18 24 30 25 28 30 32 34 35
50 47 42 32 36 39 23 31 18 26 23 45 52 61 68 64 72 73 64 54 67 66 63 72 70 66 58 59 67 76 66 57 42 38 31 24 18 22 25 22 15 27 26 24 28 29 26 29 33
52 46 38 31 32 32 22 14 33 37 42 39 70 78 72 78 75 63 60 49 59 53 54 64 82 65 69 65 66 58 54 47 47 43 36 35 28 25 24 21 25 25 22 26 21 24 32 34 32
44 42 42 31 25 27 33 25 28 37 30 27 33 67 72 72 74 62 56 55 63 57 61 71 58 65 61 48 56 54 49 52 49 46 44 33 28 32 34 30 25 20 16 18 20 24 27 31 32
40 39 35 37 26 3 30 20 32 26 23 30 28 54 76 77 74 66 57 60 61 62 60 54 49 60 48 43 42 48 44 36 42 46 45 35 34 39 37 27 17 14 14 16 18 22 28 28 28
36 37 37 31 18 14 36 19 14 29 47 28 16 53 80 78 73 66 62 59 56 46 40 36 56 42 39 42 44 41 41 45 47 40 27 32 39 30 22 19 14 8 10 16 19 20 22 22 24
41 29 15 21 16 12 23 14 14 31 28 23 22 46 70 76 67 59 68 58 57 51 40 12 41 45 41 41 35 37 36 35 31 29 32 30 24 18 17 11 7 9 13 15 15 17 19 24 26
37 27 6 9 16 21 23 14 26 20 31 42 58 59 62 75 70 68 69 57 51 53 61 65 52 45 41 44 45 46 48 47 40 33 35 29 16 12 9 8 5 6 11 15 16 19 23 26 29
12 23 35 10 10 10 11 8 3 29 23 30 45 67 53 76 70 69 72 57 52 54 47 52 56 51 45 46 45 38 34 43 40 55 45 30 19 9 4 1 6 8 13 18 23 25 20 20 29
16 12 20 8 9 11 10 17 9 10 10 32 37 30 59 66 78 82 76 64 55 56 56 46 42 44 44 35 37 39 36 40 42 41 34 23 15 7 2 3 8 13 17 23 26 20 14 20 19
7 4 9 5 8 10 12 10 12 11 25 36 39 70 72 81 87 90 85 76 65 61 58 55 39 40 34 32 37 37 33 34 35 30 25 20 13 6 3 5 9 11 12 14 19 22 23 28 28
13 16 17 14 12 6 8 3 18 31 34 44 53 79 83 84 90 94 88 80 70 64 59 52 42 36 30 31 32 35 37 35 30 25 21 15 10 5 4 8 4 5 13 18 22 25 29 32 26
Wind_Direction_500mb
268 236 215 203 63 180 239 244 247 280 284 298 172 120 93 141 150 184 176 193 174 164 159 157 155 155 153 151 151 148 142 134 127 124 129 132 132 131 131 132 133 134 134 133 134 131 137 142 137
246 176 224 260 157 224 254 238 253 257 262 264 95 96 88 80 115 125 144 176 164 167 162 157 154 154 156 153 155 153 148 140 132 128 131 137 136 133 131 132 133 135 133 134 141 142 144 146 142
235 200 238 176 211 213 250 220 253 260 279 194 117 98 92 126 120 142 165 164 170 169 163 158 154 155 156 155 158 157 153 149 142 133 133 140 140 135 131 130 130 133 136 138 137 139 145 147 145
225 201 252 188 229 226 247 264 270 295 298 23 44 81 79 132 134 159 170 173 167 167 162 159 157 157 159 158 160 163 161 156 150 139 137 146 149 142 135 131 131 131 132 125 124 135 145 149 149
217 264 226 228 246 255 253 247 254 271 275 263 309 79 87 113 140 155 167 170 172 164 164 162 160 160 161 162 163 166 166 164 158 149 142 151 156 153 146 140 135 130 128 115 114 122 133 140 146
232 223 235 227 242 237 251 258 264 259 261 265 153 115 122 136 142 157 163 166 165 163 165 164 162 163 163 165 166 168 169 169 165 161 154 158 164 164 153 143 138 136 127 114 104 108 125 142 167
223 273 236 250 238 243 239 245 253 254 270 283 192 132 142 144 148 159 154 158 154 159 168 166 165 164 164 164 167 170 172 173 173 173 169 167 170 171 165 155 147 148 155 153 164 166 197 233 264
229 242 257 242 241 257 257 252 246 242 255 267 173 138 153 151 149 154 154 167 164 161 174 172 169 167 166 165 168 171 174 177 178 181 180 176 174 177 179 174 166 166 182 202 223 247 263 269 274
234 231 238 238 233 243 263 261 273 275 229 89 63 134 142 145 151 151 157 165 166 171 178 179 175 172 170 170 170 174 177 180 182 183 183 182 182 183 185 186 184 193 213 230 255 270 277 285 291
211 220 234 235 242 257 272 277 269 254 139 96 102 122 134 148 156 160 157 166 175 175 186 184 180 177 174 174 176 178 180 182 185 186 184 181 181 185 190 197 204 228 256 272 278 291 295 301 313
246 233 240 238 249 263 273 282 288 200 208 169 153 141 144 152 160 167 170 173 190 186 183 185 182 180 178 177 178 180 182 184 185 186 185 181 171 157 179 195 175 53 352 323 290 343 323 311 332
246 247 245 250 242 249 257 274 291 291 188 177 189 163 156 153 162 172 176 179 190 197 192 190 183 180 180 178 181 181 182 183 184 182 183 179 178 155 166 182 148 110 353 11 13 356 349 351 330
234 238 245 248 257 262 277 284 280 293 167 186 177 207 171 171 165 177 186 191 192 195 194 187 181 181 181 178 186 184 185 184 185 183 181 178 180 174 183 222 240 283 314 334 336 344 318 325 313
256 232 240 248 246 254 255 275 280 272 255 198 171 186 185 175 178 187 196 210 183 192 188 192 184 178 182 184 181 193 183 172 166 161 177 184 172 177 205 217 228 275 289 319 342 344 315 300 309
249 263 244 230 241 246 239 259 253 257 228 282 217 193 137 179 184 186 201 216 191 187 175 180 173 171 180 197 203 183 170 171 168 159 148 164 189 173 208 217 205 214 200 249 253 263 273 279 289
251 246 245 239 230 236 204 239 240 228 218 250 233 185 188 187 171 192 208 217 223 211 164 165 177 173 172 184 189 181 202 205 199 202 194 181 190 200 204 217 219 225 250 261 266 279 286 290 291
256 230 233 240 231 220 216 219 209 196 218 232 220 201 190 196 210 210 217 208 223 204 183 177 190 172 181 170 187 189 188 187 191 193 199 201 220 230 229 218 219 236 261 253 267 280 288 298 293
227 218 229 224 224 210 224 228 184 230 203 214 220 180 190 206 215 227 227 222 212 204 201 195 199 181 187 193 186 195 192 195 188 188 187 207 214 238 227 213 206 229 251 266 281 284 297 300 298
244 246 236 249 221 231 216 213 196 229 210 200 201 187 186 200 224 232 229 234 206 195 186 185 179 179 185 193 199 191 198 200 190 189 207 213 224 241 215 222 226 244 253 268 282 294 301 305 309
245 244 235 227 223 225 205 206 200 209 232 200 197 193 196 203 222 231 222 229 200 190 191 197 195 195 200 198 203 208 204 200 189 192 204 224 230 203 226 237 241 247 261 268 281 295 301 309 312
238 238 243 230 206 230 208 216 202 210 222 219 200 201 198 201 220 220 212 205 192 191 183 176 184 213 206 205 207 204 205 197 197 195 188 196 195 227 235 229 238 246 255 269 277 288 296 302 308
249 238 244 247 217 215 204 218 219 203 207 216 206 194 195 200 216 220 217 190 185 187 190 172 171 173 207 197 195 202 179 192 194 196 192 189 201 219 229 231 244 240 252 259 275 291 300 301 305
266 241 236 250 264 224 200 196 207 170 209 212 209 183 189 197 207 210 205 193 194 197 202 214 204 189 191 198 199 202 192 191 179 184 191 200 208 213 223 235 245 257 273 291 303 302 302 305 306
244 269 243 246 247 258 255 174 203 186 206 203 182 175 185 192 198 205 193 188 185 183 195 194 185 193 199 193 196 184 174 171 181 187 182 193 203 222 224 228 234 252 288 296 302 300 300 309 309
229 233 228 217 218 214 264 262 196 205 199 189 170 163 172 182 190 171 171 173 164 158 168 223 193 184 190 189 177 178 176 177 173 174 186 190 190 201 213 212 234 275 295 305 311 309 308 306 312
224 225 215 137 158 209 220 231 203 210 187 191 166 171 173 173 183 169 170 168 153 145 155 182 188 173 174 172 168 171 166 165 159 173 186 192 195 175 193 222 251 294 308 312 323 318 314 320 324
218 213 199 309 177 133 194 277 185 181 181 174 160 165 168 175 177 162 157 157 137 148 160 163 166 169 173 189 180 176 177 181 175 173 177 186 198 207 187 36 322 321 318 320 334 341 340 338 339
221 180 192 191 183 156 159 203 206 155 216 164 147 129 122 121 127 127 136 134 128 130 140 150 152 144 147 154 169 165 164 161 161 165 174 180 186 185 199 334 356 353 341 342 346 3 6 349 350
166 181 241 17 264 160 151 218 125 80 141 123 110 105 104 103 106 120 126 125 127 124 124 125 137 137 141 150 149 152 146 152 155 154 154 156 152 133 63 5 5 5 335 322 327 331 325 323 315
194 215 185 181 260 290 141 266 332 102 92 102 106 105 107 107 110 116 124 126 124 120 121 123 136 139 140 140 143 141 137 137 138 135 129 125 122 118 11 36 89 299 306 320 318 316 317 324 322
Wind_Speed_850mb
20 10 12 8 3 4 12 20 26 42 31 27 22 37 33 42 29 13 46 50 27 60 61 57 55 51 50 47 43 38 34 30 28 29 31 35 37 36 33 31 26 22 19 17 17 17 17 18 16
15 13 7 11 8 7 15 29 41 44 40 2 15 62 54 29 42 46 48 42 34 58 58 57 54 52 48 46 42 37 33 30 27 27 29 33 35 34 29 27 24 19 16 15 14 14 14 15 16
18 22 10 9 8 22 17 18 39 45 45 14 6 39 21 52 48 40 51 49 38 62 57 54 53 50 48 45 41 36 32 30 26 24 25 29 31 30 26 24 22 17 14 11 11 12 15 16 15
9 11 17 6 19 22 39 27 49 32 53 18 18 17 24 41 51 55 54 41 41 62 56 53 50 48 46 45 42 37 33 30 26 23 22 25 29 27 24 20 18 15 12 12 12 12 14 15 15
19 15 8 11 19 23 28 58 75 38 45 26 8 12 20 34 57 65 54 38 47 61 57 53 49 46 44 44 43 40 35 31 26 21 19 21 25 25 22 19 15 14 12 11 12 11 11 12 12
12 13 6 26 19 33 36 66 61 34 57 48 11 21 20 42 72 58 46 37 44 59 59 55 50 44 42 42 42 41 37 32 27 22 18 19 22 22 19 16 13 11 9 8 8 8 7 5 3
17 7 12 17 21 38 28 81 43 33 37 32 49 21 42 52 68 57 45 38 35 45 57 56 52 47 43 43 42 41 38 34 28 21 18 18 20 22 19 15 12 9 7 6 4 4 4 4 6
33 9 21 28 32 41 39 47 77 50 41 57 30 15 32 62 65 61 59 52 46 39 48 55 54 51 51 50 46 43 40 35 30 24 21 21 22 23 22 17 13 10 7 6 6 6 9 11 15
40 15 33 50 37 24 58 15 60 36 40 12 23 53 77 67 67 63 62 63 57 47 43 55 55 55 55 56 54 49 45 40 36 32 29 27 25 25 24 20 15 10 9 8 8 10 13 16 20
23 24 52 18 24 29 43 28 46 10 4 7 51 65 63 70 64 69 71 70 57 51 49 65 61 59 58 56 54 51 47 43 39 36 32 30 26 23 21 18 12 11 11 12 14 16 20 21 24
17 51 29 35 50 62 48 45 57 10 10 21 27 64 61 55 60 64 64 69 57 51 47 68 64 61 58 57 53 49 44 40 36 32 30 28 26 22 16 17 9 9 7 15 18 17 22 17 19
33 51 53 49 54 67 41 57 33 19 25 38 33 44 61 58 53 58 58 67 63 58 50 64 63 61 55 53 52 47 42 37 33 30 30 29 28 26 10 11 14 3 7 14 15 19 21 21 24
47 46 50 59 69 73 60 40 36 34 26 39 34 41 58 57 56 52 54 58 73 65 55 53 52 59 54 47 46 43 40 35 30 26 27 32 26 21 16 11 7 9 8 12 15 21 25 29 25
16 45 50 58 63 71 44 34 33 42 19 21 26 21 50 58 53 55 51 54 66 70 74 62 59 55 53 44 35 42 36 29 26 24 18 28 29 22 19 12 19 7 12 14 12 14 19 29 32
66 45 33 48 60 51 50 36 47 42 24 26 24 20 12 68 62 59 64 48 53 59 72 75 66 57 53 44 27 32 27 27 21 15 15 18 26 24 19 15 14 11 5 11 18 29 34 36 34
33 30 35 46 50 50 35 48 30 34 23 36 28 32 27 21 33 36 57 63 44 46 64 68 61 53 50 38 34 31 35 29 26 17 20 19 12 28 26 26 18 14 15 19 26 25 28 34 38
25 32 42 48 42 41 38 20 18 39 40 40 32 42 38 37 33 41 44 48 54 45 62 68 78 61 62 44 45 44 44 38 42 23 20 22 19 21 30 21 21 15 17 24 27 32 33 38 41
34 47 43 49 48 50 48 34 17 41 50 40 37 47 49 45 46 53 53 46 57 43 43 72 74 68 78 66 57 53 41 43 31 26 24 23 16 14 19 24 29 24 28 25 25 28 33 34 39
38 40 45 31 39 32 47 31 28 23 30 39 49 52 53 50 56 61 61 53 65 55 55 80 59 69 73 70 75 61 60 45 37 22 32 27 24 16 14 21 18 24 30 25 28 30 32 34 35
50 47 42 32 36 39 23 31 18 26 23 45 52 61 68 64 72 73 64 54 67 66 63 72 70 66 58 59 67 76 66 57 42 38 31 24 18 22 25 22 15 27 26 24 28 29 26 29 33
52 46 38 31 32 32 22 14 33 37 42 39 70 78 72 78 75 63 60 49 59 53 54 64 82 65 69 65 66 58 54 47 47 43 36 35 28 25 24 21 25 25 22 26 21 24 32 34 32
44 42 42 31 25 27 33 25 28 37 30 27 33 67 72 72 74 62 56 55 63 57 61 71 58 65 61 48 56 54 49 52 49 46 44 33 28 32 34 30 25 20 16 18 20 24 27 31 32
40 39 35 37 26 3 30 20 32 26 23 30 28 54 76 77 74 66 57 60 61 62 60 54 49 60 48 43 42 48 44 36 42 46 45 35 34 39 37 27 17 14 14 16 18 22 28 28 28
36 37 37 31 18 14 36 19 14 29 47 28 16 53 80 78 73 66 62 59 56 46 40 36 56 42 39 42 44 41 41 45 47 40 27 32 39 30 22 19 14 8 10 16 19 20 22 22 24
41 29 15 21 16 12 23 14 14 31 28 23 22 46 70 76 67 59 68 58 57 51 40 12 41 45 41 41 35 37 36 35 31 29 32 30 24 18 17 11 7 9 13 15 15 17 19 24 26
37 27 6 9 16 21 23 14 26 20 31 42 58 59 62 75 70 68 69 57 51 53 61 65 52 45 41 44 45 46 48 47 40 33 35 29 16 12 9 8 5 6 11 15 16 19 23 26 29
12 23 35 10 10 10 11 8 3 29 23 30 45 67 53 76 70 69 72 57 52 54 47 52 56 51 45 46 45 38 34 43 40 55 45 30 19 9 4 1 6 8 13 18 23 25 20 20 29
16 12 20 8 9 11 10 17 9 10 10 32 37 30 59 66 78 82 76 64 55 56 56 46 42 44 44 35 37 39 36 40 42 41 34 23 15 7 2 3 8 13 17 23 26 20 14 20 19
7 4 9 5 8 10 12 10 12 11 25 36 39 70 72 81 87 90 85 76 65 61 58 55 39 40 34 32 37 37 33 34 35 30 25 20 13 6 3 5 9 11 12 14 19 22 23 28 28
13 16 17 14 12 6 8 3 18 31 34 44 53 79 83 84 90 94 88 80 70 64 59 52 42 36 30 31 32 35 37 35 30 25 21 15 10 5 4 8 4 5 13 18 22 25 29 32 26
Wind_Direction_850mb
268 236 215 203 63 180 239 244 247 280 284 298 172 120 93 141 150 184 176 193 174 164 159 157 155 155 153 151 151 148 142 134 127 124 129 132 132 131 131 132 133 134 134 133 134 131 137 142 137
246 176 224 260 157 224 254 238 253 257 262 264 95 96 88 80 115 125 144 176 164 167 162 157 154 154 156 153 155 153 148 140 132 128 131 137 136 133 131 132 133 135 133 134 141 142 144 146 142
235 200 238 176 211 213 250 220 253 260 279 194 117 98 92 126 120 142 165 164 170 169 163 158 154 155 156 155 158 157 153 149 142 133 133 140 140 135 131 130 130 133 136 138 137 139 145 147 145
225 201 252 188 229 226 247 264 270 295 298 23 44 81 79 132 134 159 170 173 167 167 162 159 157 157 159 158 160 163 161 156 150 139 137 146 149 142 135 131 131 131 132 125 124 135 145 149 149
217 264 226 228 246 255 253 247 254 271 275 263 309 79 87 113 140 155 167 170 172 164 164 162 160 160 161 162 163 166 166 164 158 149 142 151 156 153 146 140 135 130 128 115 114 122 133 140 146
232 223 235 227 242 237 251 258 264 259 261 265 153 115 122 136 142 157 163 166 165 163 165 164 162 163 163 165 166 168 169 169 165 161 154 158 164 164 153 143 138 136 127 114 104 108 125 142 167
223 273 236 250 238 243 239 245 253 254 270 283 192 132 142 144 148 159 154 158 154 159 168 166 165 164 164 164 167 170 172 173 173 173 169 167 170 171 165 155 147 148 155 153 164 166 197 233 264
229 242 257 242 241 257 257 252 246 242 255 267 173 138 153 151 149 154 154 167 164 161 174 172 169 167 166 165 168 171 174 177 178 181 180 176 174 177 179 174 166 166 182 202 223 247 263 269 274
234 231 238 238 233 243 263 261 273 275 229 89 63 134 142 145 151 151 157 165 166 171 178 179 175 172 170 170 170 174 177 180 182 183 183 182 182 183 185 186 184 193 213 230 255 270 277 285 291
211 220 234 235 242 257 272 277 269 254 139 96 102 122 134 148 156 160 157 166 175 175 186 184 180 177 174 174 176 178 180 182 185 186 184 181 181 185 190 197 204 228 256 272 278 291 295 301 313
246 233 240 238 249 263 273 282 288 200 208 169 153 141 144 152 160 167 170 173 190 186 183 185 182 180 178 177 178 180 182 184 185 186 185 181 171 157 179 195 175 53 352 323 290 343 323 311 332
246 247 245 250 242 249 257 274 291 291 188 177 189 163 156 153 162 172 176 179 190 197 192 190 183 180 180 178 181 181 182 183 184 182 183 179 178 155 166 182 148 110 353 11 13 356 349 351 330
234 238 245 248 257 262 277 284 280 293 167 186 177 207 171 171 165 177 186 191 192 195 194 187 181 181 181 178 186 184 185 184 185 183 181 178 180 174 183 222 240 283 314 334 336 344 318 325 313
256 232 240 248 246 254 255 275 280 272 255 198 171 186 185 175 178 187 196 210 183 192 188 192 184 178 182 184 181 193 183 172 166 161 177 184 172 177 205 217 228 275 289 319 342 344 315 300 309
249 263 244 230 241 246 239 259 253 257 228 282 217 193 137 179 184 186 201 216 191 187 175 180 173 171 180 197 203 183 170 171 168 159 148 164 189 173 208 217 205 214 200 249 253 263 273 279 289
251 246 245 239 230 236 204 239 240 228 218 250 233 185 188 187 171 192 208 217 223 211 164 165 177 173 172 184 189 181 202 205 199 202 194 181 190 200 204 217 219 225 250 261 266 279 286 290 291
256 230 233 240 231 220 216 219 209 196 218 232 220 201 190 196 210 210 217 208 223 204 183 177 190 172 181 170 187 189 188 187 191 193 199 201 220 230 229 218 219 236 261 253 267 280 288 298 293
227 218 229 224 224 210 224 228 184 230 203 214 220 180 190 206 215 227 227 222 212 204 201 195 199 181 187 193 186 195 192 195 188 188 187 207 214 238 227 213 206 229 251 266 281 284 297 300 298
244 246 236 249 221 231 216 213 196 229 210 200 201 187 186 200 224 232 229 234 206 195 186 185 179 179 185 193 199 191 198 200 190 189 207 213 224 241 215 222 226 244 253 268 282 294 301 305 309
245 244 235 227 223 225 205 206 200 209 232 200 197 193 196 203 222 231 222 229 200 190 191 197 195 195 200 198 203 208 204 200 189 192 204 224 230 203 226 237 241 247 261 268 281 295 301 309 312
238 238 243 230 206 230 208 216 202 210 222 219 200 201 198 201 220 220 212 205 192 191 183 176 184 213 206 205 207 204 205 197 197 195 188 196 195 227 235 229 238 246 255 269 277 288 296 302 308
249 238 244 247 217 215 204 218 219 203 207 216 206 194 195 200 216 220 217 190 185 187 190 172 171 173 207 197 195 202 179 192 194 196 192 189 201 219 229 231 244 240 252 259 275 291 300 301 305
266 241 236 250 264 224 200 196 207 170 209 212 209 183 189 197 207 210 205 193 194 197 202 214 204 189 191 198 199 202 192 191 179 184 191 200 208 213 223 235 245 257 273 291 303 302 302 305 306
244 269 243 246 247 258 255 174 203 186 206 203 182 175 185 192 198 205 193 188 185 183 195 194 185 193 199 193 196 184 174 171 181 187 182 193 203 222 224 228 234 252 288 296 302 300 300 309 309
229 233 228 217 218 214 264 262 196 205 199 189 170 163 172 182 190 171 171 173 164 158 168 223 193 184 190 189 177 178 176 177 173 174 186 190 190 201 213 212 234 275 295 305 311 309 308 306 312
224 225 215 137 158 209 220 231 203 210 187 191 166 171 173 173 183 169 170 168 153 145 155 182 188 173 174 172 168 171 166 165 159 173 186 192 195 175 193 222 251 294 308 312 323 318 314 320 324
218 213 199 309 177 133 194 277 185 181 181 174 160 165 168 175 177 162 157 157 137 148 160 163 166 169 173 189 180 176 177 181 175 173 177 186 198 207 187 36 322 321 318 320 334 341 340 338 339
221 180 192 191 183 156 159 203 206 155 216 164 147 129 122 121 127 127 136 134 128 130 140 150 152 144 147 154 169 165 164 161 161 165 174 180 186 185 199 334 356 353 341 342 346 3 6 349 350
166 181 241 17 264 160 151 218 125 80 141 123 110 105 104 103 106 120 126 125 127 124 124 125 137 137 141 150 149 152 146 152 155 154 154 156 152 133 63 5 5 5 335 322 327 331 325 323 315
194 215 185 181 260 290 141 266 332 102 92 102 106 105 107 107 110 116 124 126 124 120 121 123 136 139 140 140 143 141 137 137 138 135 129 125 122 118 11 36 89 299 306 320 318 316 317 324 322